Regional Weather Roundup
Issued by NWS

Home | Current Version | Previous Version | Text Only | Print | Product List | Glossary On
Versions: 1 2 3 4 5 6 7 8 9 10 11 12 13 14 15 16 17 18 19 20 21 22 23 24 25 26 27 28 29 30 31 32 33 34 35 36 37 38 39 40 41 42 43 44 45 46 47 48 49 50
000
ASUS43 KBIS 242310
RWRND

NORTH DAKOTA REGIONAL WEATHER ROUNDUP
NATIONAL WEATHER SERVICE BISMARCK ND
600 PM CDT SAT SEP 24 2016

NOTE: "FAIR" INDICATES FEW OR NO CLOUDS BELOW 12,000 FEET WITH NO
SIGNIFICANT WEATHER AND/OR OBSTRUCTIONS TO VISIBILITY.


NDZ001>003-009>011-017-250000-
NORTHWEST NORTH DAKOTA

CITY           SKY/WX    TMP DP  RH WIND       PRES   REMARKS
WILLISTON      CLOUDY    55  52  89 N31G38    29.75S
MINOT          MOSUNNY   77  62  59 S10       29.64S
MINOT AFB      MOSUNNY   76  64  64 W10       29.64R
$$

NDZ018>021-031>035-040>046-250000-
SOUTHWEST NORTH DAKOTA

CITY           SKY/WX    TMP DP  RH WIND       PRES   REMARKS
BISMARCK       MOSUNNY   76  50  40 SW15G23   29.70R
DICKINSON      PTSUNNY   65  49  56 S15       29.67S
GARRISON         N/A     75  56  51 S15G22    29.67R
HETTINGER ARPT PTSUNNY   65  48  54 S20G30    29.73R
$$

NDZ004>008-012>016-024-026-027-054-250000-
NORTHEAST NORTH DAKOTA

CITY           SKY/WX    TMP DP  RH WIND       PRES   REMARKS
GRAND FORKS    CLOUDY    74  65  73 SE20      29.77S
GRND FRKS AFB  CLOUDY    73  66  78 S13       29.77R
DEVILS LAKE    MOSUNNY   71  67  87 SE13      29.73S
$$

NDZ022-023-025-028>030-036>039-047>053-250000-
SOUTHEAST NORTH DAKOTA

CITY           SKY/WX    TMP DP  RH WIND       PRES   REMARKS
FARGO          CLOUDY    75  65  70 SE16G25   29.80R
JAMESTOWN      CLOUDY    75  66  73 S15G23    29.73F
$$




USA.gov is the U.S. government's official web portal to all federal, state and local government web resources and services.